Tracking 23758 objects as of 28-Oct-2021
HD Live streaming from Space Station
objects crossing your sky now

IRIDIUM 91 DEB

Track IRIDIUM 91 DEB now!
10-day predictions


NORAD ID: 40327
Int'l Code: 2002-005K
Perigee: 686.2 km
Apogee: 703.9 km
Inclination: 86.4 °
Period: 98.5 minutes
Semi major axis: 7066 km
RCS: Unknown
Launch date: February 11, 2002
Source: United States (US)
Launch site: AIR FORCE WESTERN TEST RANGE (AFWTR)

Note: This is SATELLITE DEBRIS
aabbcc
Your satellite tracking list
Your tracking list is empty




NASA's NSSDC Master Catalog

Two Line Element Set (TLE):
1 40327U 02005K   21300.37110424  .00005144  00000-0  10295-2 0  9994
2 40327  86.3828 306.6269 0012536 184.0187 176.0925 14.61620624366075
Source of the keplerian elements: AFSPC